Location: D.A.R.C. Observatory
(36.7133°N, 120.8553°W)
Time: 15:26:04
(UTC-07:00)

Daily predictions for brighter satellites

Satellite Brightness Start Highest point End
(mag) Time Altitude Azimuth Time Altitude Azimuth Time Altitude Azimuth
ATLAS 3B CENTAUR R/B 4.5 18:59:41 10° SW 19:06:56 43° SSE 19:25:24 10° E
Cosmos 841 Rocket 3.5 19:12:48 10° S 19:17:50 62° ESE 19:22:55 10° NNE
USA 81 4.4 19:14:01 10° N 19:19:05 45° E 19:24:06 10° SSE
Cosmos 1953 Rocket 3.5 19:15:11 10° N 19:19:29 62° E 19:23:45 10° SSE
Meteor 2-5 Rocket 4.0 19:14:17 10° N 19:19:57 50° ENE 19:25:27 10° SSE
Cosmos 2058 Rocket 3.1 19:17:43 10° S 19:21:59 57° E 19:26:16 10° NNE
SL-27 R/B 4.4 19:21:31 10° ESE 19:22:40 11° E 19:23:49 10° ENE
Cosmos 1271 Rocket 3.9 19:19:22 10° SSW 19:23:01 47° W 19:26:43 10° N
USA 229 DEB 4.1 19:17:08 10° NW 19:24:20 78° WSW 19:31:40 10° SSE
USA 229 4.1 19:17:13 10° NW 19:24:26 79° WSW 19:31:46 10° SSE
Cosmos 1937 Rocket 3.5 19:20:37 10° NNW 19:25:56 86° ENE 19:31:11 10° SSE
NOSS 3-1 (A) 4.4 19:21:23 10° NNW 19:28:48 49° NE 19:36:54 10° SE
ATLAS CENTAUR R/B 3.8 19:15:04 10° NW 19:29:52 58° NE 19:34:50 10° ESE
Cosmos 540 Rocket 3.9 19:25:51 10° SSE 19:30:32 38° ESE 19:35:14 10° NE
Cosmos 1763 Rocket 4.0 19:31:03 10° SSW 19:36:05 64° WNW 19:41:14 10° NNE
Cosmos 1825 Rocket 4.4 19:32:05 10° NNW 19:36:26 56° W 19:40:46 10° S
NOSS 3-1 (C) 4.1 19:29:11 10° NNW 19:36:54 69° NE 19:45:22 10° SE
Cosmos 2184 Rocket 4.2 19:30:56 10° SSE 19:36:59 52° E 19:43:08 10° NNE
Meteor 2-13 Rocket 4.4 19:32:46 10° S 19:38:52 85° E 19:44:58 10° N
Cosmos 1805 4.3 19:39:47 10° SE 19:42:57 24° E 19:46:06 10° NE
SL-08 ROCKET BODY 4.4 19:37:45 10° S 19:43:37 89° E 19:49:36 10° N
Cosmos 1340 Rocket 4.1 19:43:53 10° NNW 19:47:47 46° W 19:51:41 10° SSW
CZ-3 Stage 3 2.4 19:47:46 10° SSE 19:47:55 10° SSE 19:47:58 10° SSE
CZ-2D R/B 4.5 19:49:03 17° ESE 19:50:41 22° ENE 19:53:42 10° NNE
Cosmos 2327 Rocket 4.4 19:49:37 10° S 19:55:41 67° E 20:01:43 10° NNE
Cosmos 1943 Rocket 4.0 19:54:52 10° NW 19:59:48 33° WSW 20:04:44 10° SSW
BREEZE-M DEB (TANK) 4.0 19:43:29 10° WSW 20:00:10 88° NNW 20:04:19 14° ENE
ISS -4.0 19:57:40 10° SW 20:00:55 77° SE 20:02:58 21° NE
BREEZE-M (TANK) 3.8 19:49:29 10° NW 20:03:52 85° NE 20:06:34 22° ESE
OAO 3 Copernicus 4.3 19:59:57 10° W 20:05:00 74° S 20:07:56 25° E
Spot 2 Rocket 4.2 20:08:15 24° ESE 20:10:10 32° ENE 20:14:35 10° N
Thor Agena Rocket 4.5 20:09:58 10° N 20:15:01 51° WNW 20:20:00 10° SW
Yuri Rocket 4.3 20:11:40 10° WSW 20:15:43 27° S 20:17:05 23° SSE
Meteor 1-24 Rocket 3.8 20:11:06 10° N 20:17:03 84° W 20:22:46 10° S
ALOS 3.7 20:13:09 10° SSW 20:17:30 39° W 20:21:52 10° NNW
SJ-6B 2.8 20:13:50 10° S 20:17:51 83° W 20:21:47 10° NNW
H-2A R/B 3.2 20:18:27 10° S 20:22:07 60° W 20:25:50 10° NNW
SJ 16-02 1.7 20:18:24 10° N 20:22:37 43° ENE 20:23:17 40° E
Cosmos 1953 2.7 20:22:55 42° E 20:22:55 42° E 20:26:33 10° NNE
FREGAT/IRIS 4.3 20:20:07 10° SSW 20:22:55 34° W 20:25:44 10° NNW
Resurs 1-3 3.8 20:26:48 43° ESE 20:27:38 49° ENE 20:31:52 10° N
Cosmos 783 Rocket 4.3 20:23:47 10° S 20:28:57 73° ESE 20:34:09 10° NNE
Cosmos 1356 3.3 20:27:54 10° N 20:31:16 70° ENE 20:31:16 70° ENE
Cosmos 1544 4.4 20:30:01 10° SSW 20:33:25 40° W 20:36:52 10° N
Cosmos 372 Rocket 3.9 20:33:01 10° NNW 20:38:18 89° ENE 20:41:01 29° SSE
Cosmos 1125 Rocket 3.6 20:33:51 10° NNW 20:39:10 79° WSW 20:42:37 22° S
Cosmos 2154 Rocket 4.0 20:36:09 10° S 20:42:22 86° W 20:48:40 10° N
Envisat 2.9 20:41:27 50° SE 20:42:30 62° ENE 20:47:31 10° N
Cosmos 1674 4.0 20:49:39 10° N 20:51:42 31° N 20:51:42 31° N
Resurs 01 Rocket 1.7 20:53:17 56° S 20:54:08 75° WSW 20:58:34 10° NNW
Cosmos 2341 Rocket 3.8 20:50:02 10° S 20:56:14 86° E 21:02:29 10° N
SL-27 R/B 4.1 20:54:09 10° SW 20:57:28 34° WNW 21:00:50 10° N
GP-B 3.6 20:54:09 10° N 20:58:32 58° W 21:01:10 23° SSW
BREEZE-M DEB 4.5 20:54:43 10° WNW 20:59:09 24° WSW 20:59:39 23° SW
Milstar 3 Cent rocket 3.1 20:55:48 10° WSW 20:59:30 29° SSW 20:59:30 29° SSW
Meteor 2-21 4.3 21:06:45 67° SE 21:07:22 73° E 21:13:29 10° N
ATLAS 2AS CENTAUR R/B 3.3 21:03:12 10° NNW 21:10:47 44° NE 21:11:15 44° ENE
Cosmos 2369 4.0 21:05:55 10° NNW 21:10:34 52° NNE 21:10:34 52° NNE
Meteor 1-21 Rocket 4.5 21:15:36 10° NNW 21:21:15 65° W 21:22:01 58° SW
MOS 1-B Rocket 4.5 21:21:13 32° SSW 21:23:55 55° WSW 21:29:32 10° NNW
Cosmos 2285 Rocket 4.1 21:17:46 10° SSW 21:24:11 74° WNW 21:30:39 10° NNE
SL-8 Rocket 4.3 21:44:03 61° WNW 21:44:03 61° WNW 21:49:42 10° N
Centaur D AC-29 3.8 21:46:09 10° WSW 21:48:36 17° SW 21:48:36 17° SW
SJ 16-02 4.2 21:58:37 10° WNW 22:00:20 13° W 22:00:20 13° W
Cosmos 1697 Rocket 4.4 21:59:28 10° NNW 22:02:01 28° NNW 22:02:01 28° NNW
Cosmos 1980 Rocket 4.2 22:01:40 10° NNW 22:03:24 20° N 22:03:24 20° N
ATLAS 2AS CENTAUR R/B 4.4 22:54:32 10° NW 22:58:42 29° WNW 22:58:42 29° WNW
